This demonstration page uses our WeatherBlox Daily Observations layout. Learn more.

Left ArrowRight Arrow

38.20091, -84.87328

Hourly Observations for October 6, 2021

Temp ( °F °C ) Dew Point ( °F °C ) Humidity (%) Winds ( mph kmh ) Pressure ( in mb ) Visibility ( mi km ) Precip ( " mm )
12:53 am 00:53 Clear 69 20.6 66 18.9 90 90 ENE 5 7 30.12 1020 10 16 N/A
1:53 am 01:53 Clear 69 20.6 66 18.9 90 90 ENE 5 7 30.12 1020 10 16 N/A
2:53 am 02:53 Partly Cloudy 69 20.6 66 18.9 90 90 N N/A 30.11 1020 10 16 N/A
3:53 am 03:53 Mostly Cloudy 67 19.4 66 18.9 97 97 N N/A 30.12 1020 8 13 N/A
4:53 am 04:53 Mostly Cloudy with Light Rain 68 20 66 18.9 93 93 ENE 5 7 30.12 1020 10 16 0.01 0.25
5:53 am 05:53 Clear with Light Rain 68 20 67 19.4 96 96 ENE 3 6 30.13 1020 8 13 0.01 0.25
6:53 am 06:53 Mostly Clear 68 20 67 19.4 96 96 N N/A 30.14 1021 10 16 0.01 0.25
7:53 am 07:53 Cloudy 68 20 67 19.4 96 96 E 3 6 30.15 1021 9 14 N/A
8:53 am 08:53 Cloudy 69 20.6 67 19.4 93 93 ESE 5 7 30.16 1022 10 16 N/A
9:53 am 09:53 Cloudy 71 21.7 68 20 90 90 N N/A 30.18 1022 10 16 N/A
10:53 am 10:53 Cloudy 72 22.2 69 20.6 91 91 ENE 3 6 30.18 1022 10 16 0.00 0.00
11:53 am 11:53 Cloudy with Light Rain 74 23.3 69 20.6 85 85 E 5 7 30.18 1022 9 14 0.00 0.00
12:53 pm 12:53 Cloudy with Light Rain 73 22.8 68 20 84 84 ESE 8 13 30.18 1022 5 8 0.01 0.25
1:53 pm 13:53 Cloudy with Light Rain 73 22.8 69 20.6 87 87 SE 3 6 30.16 1021 7 11 0.05 1.27
2:53 pm 14:53 Mostly Sunny 75 23.9 69 20.6 82 82 E 5 7 30.14 1021 10 16 0.02 0.51
3:53 pm 15:53 Cloudy 76 24.4 67 19.4 74 74 SE 7 11 30.12 1020 10 16 N/A
4:53 pm 16:53 Mostly Cloudy 76 24.4 68 20 77 77 ESE 3 6 30.11 1020 10 16 N/A
5:53 pm 17:53 Mostly Sunny 75 23.9 68 20 79 79 ESE 3 6 30.10 1019 10 16 N/A
6:53 pm 18:53 Cloudy with Light Rain 74 23.3 68 20 82 82 E 6 9 30.10 1019 10 16 0.00 0.00
7:53 pm 19:53 Mostly Cloudy with Nearby Thunderstorms 71 21.7 68 20 90 90 N N/A 30.12 1020 10 16 0.03 0.76
8:28 pm 20:28 Cloudy with Rain 70 21.1 68 20 93 93 ESE 9 15 30.13 1020 4 6 0.05 1.27
8:38 pm 20:38 Cloudy with Nearby Thunderstorms 70 21.1 67 19.4 90 90 E 9 15 30.12 1020 4 6 0.08 2.03
8:46 pm 20:46 Cloudy with Thunderstorms 69 20.6 67 19.4 93 93 E 6 9 30.12 1020 5 8 0.11 2.79
8:53 pm 20:53 Cloudy with Thunderstorms 69 20.6 67 19.4 93 93 ESE 6 9 30.13 1020 6 10 0.13 3.30
9:08 pm 21:08 Cloudy with Nearby Thunderstorms 69 20.6 67 19.4 93 93 E 5 7 30.11 1020 7 11 0.02 0.51
9:53 pm 21:53 Mostly Cloudy with Light Rain 69 20.6 67 19.4 93 93 NE 9 15 30.11 1020 10 16 0.08 2.03
10:18 pm 22:18 Mostly Cloudy 68 20 67 19.4 96 96 SSW 8 13 30.13 1020 10 16 0.00 0.00
10:33 pm 22:33 Cloudy 69 20.6 67 19.4 93 93 N N/A 30.13 1020 10 16 0.00 0.00
10:45 pm 22:45 Cloudy 69 20.6 67 19.4 93 93 N N/A 30.13 1020 10 16 0.00 0.00
10:53 pm 22:53 Cloudy 69 20.6 67 19.4 93 93 N N/A 30.13 1020 10 16 0.00 0.00
11:12 pm 23:12 Cloudy 68 20 67 19.4 96 96 N N/A 30.13 1020 10 16 N/A
11:53 pm 23:53 Cloudy with Light Rain 68 20 67 19.4 96 96 SSE 5 7 30.14 1021 8 13 0.01 0.25

Powered by AerisWeather